User: anonymous   Login
Location: Nag� el Ma?a??a
(24.0667°N, 32.8833°E)
Time: 18:50:05
(UTC+00:00)
Language:

Cosmos 1707 Rocket - Orbit

View from above orbital plane
View from above orbital plane
View from above satellite
View from above satellite

Ground track
Ground track

The orbit data is extracted from the following two-line orbital elements,

1 16327U 85113B   21340.35007471  .00000126  00000-0  12401-4 0  9995
2 16327  82.5346   5.4619 0019100   6.9298   3.5188 14.83541830922857
Epoch (UTC): 06 December 2021 08:24:06
Eccentricity: 0.0019100
inclination: 82.5346°
perigee height: 605 km
apogee height: 631 km
right ascension of ascending node: 5.4619°
argument of perigee: 6.9298°
revolutions per day: 14.83541830
mean anomaly at epoch: 3.5188°
orbit number at epoch: 92285

The dashed part of the orbit path shows where the satellite is in the earth's shadow,  

DLR